Volver al catálogo

STARLINK-30161

ActivoComunicacionesVLEO
NORAD 57476·PAYLOAD·🇺🇸 United States

Lanzado Jul 28, 2023 desde Cape Canaveral Space Force Station

Loading…

Próximos Pases (próximas 24 horas)

TLE

ActualizadoSource: CelesTrak SupGP

Época: Sep 15, 2026, 02:39 UTC

1 57476C 23107V   26258.11090278  .00034324  00000+0  12438-2 0  2586
2 57476  43.0014 346.0592 0001795 248.9514 341.4473 15.27545462    15

Sigue STARLINK-30161 en tiempo real con AllMySat

Download on the App Store